Location: Azul
(36.7830°S, 59.8500°W)
Time: 01:00:37
(UTC-03:00)

UKube-1 - Visible Passes

Search period start: 23 October 2021 00:00
Search period end: 02 November 2021 00:00
Orbit: 611 x 617 km, 98.4° (Epoch: 22 October)

Date Brightness Start Highest point End Pass type
(mag) Time Alt. Az. Time Alt. Az. Time Alt. Az.
23 Oct ? 21:20:25 30° NNW 21:22:19 54° W 21:26:37 10° SSW visible
24 Oct ? 19:59:18 10° ENE 20:02:17 18° ESE 20:05:17 10° SSE visible
24 Oct ? 21:36:06 25° NW 21:37:55 35° W 21:41:56 10° SSW visible
25 Oct ? 20:14:43 13° ENE 20:17:42 26° ESE 20:21:21 10° SSE visible
25 Oct ? 21:51:46 18° NW 21:53:33 24° W 21:57:05 10° SW visible
26 Oct ? 20:30:23 18° NE 20:33:09 38° ESE 20:37:12 10° S visible
26 Oct ? 22:07:26 13° WNW 22:09:13 16° W 22:11:55 10° SW visible
27 Oct ? 20:46:04 23° NE 20:48:38 58° ESE 20:52:56 10° S visible
27 Oct ? 22:24:04 10° WNW 22:24:54 10° W 22:25:45 10° W visible
28 Oct ? 21:01:44 26° NNE 21:04:09 88° ESE 21:08:32 10° SSW visible
29 Oct ? 21:17:24 26° N 21:19:42 61° WNW 21:24:02 10° SSW visible
30 Oct ? 19:56:58 10° ENE 19:59:42 17° ESE 20:02:27 10° SSE visible
30 Oct ? 21:33:05 23° NNW 21:35:17 39° W 21:39:24 10° SSW visible
31 Oct ? 20:11:42 10° ENE 20:15:06 24° ESE 20:18:36 10° SSE visible
31 Oct ? 21:48:45 18° NW 21:50:54 26° W 21:54:35 10° SW visible
01 Nov ? 20:27:22 14° NE 20:30:32 34° ESE 20:34:30 10° S visible
01 Nov ? 22:04:24 13° NW 22:06:32 18° W 22:09:32 10° SW visible
